Panama City, FL

7:57 PM CDT on July 24, 2017 (GMT -0500)
Northwest Florida Beaches International

Weather History for KECP - February, 2014

Change the Weather History Date:

Monday, February 24, 2014

  Actual Average Record
Temperature  
Mean Temperature 68 °F -  
Max Temperature 76 °F - 77 °F (2017)
Min Temperature 59 °F - 45 °F (2015)
Degree Days  
Heating Degree Days 0    
Cooling Degree Days 3    
Growing Degree Days 18 (Base 50)    
Moisture  
Dew Point 59 °F    
Average Humidity 70    
Maximum Humidity 97    
Minimum Humidity 43    
Precipitation  
Precipitation 0.00 in - 0.59 in (2013)
Month to date precipitation 5.99  
Year to date precipitation 9.01  
Sea Level Pressure  
Sea Level Pressure 30.06 in    
Wind  
Wind Speed 3 mph (NNW)    
Max Wind Speed 18 mph    
Max Gust Speed 22 mph    
Visibility 5 miles    
Events Fog    
T = Trace of Precipitation, MM = Missing Value Source: NWS Daily Summary

Daily Weather History Graph

Daily Weather History Graph

Search for Another Location

Airport or City:

Trip Planner

Search our weather history database for the weather conditions in past years. The results will help you decide how hot, cold, wet, or windy it might be!

Date:

Astronomy

Feb. 24, 2014 Rise Set
Actual Time 7:14 AM EST 6:38 PM EST
Civil Twilight 6:50 AM EST 7:02 PM EST
Nautical Twilight 6:22 AM EST 7:30 PM EST
Astronomical Twilight 5:54 AM EST 7:58 PM EST
Moon 3:00 AM EST (2/24) 1:51 PM EST (2/24)
Length of Visible Light 12h 12m
Length of Day
11h 23m
Waning Crescent, 28% of the Moon is Illuminated
Feb 24
Waning Crescent
Mar 1
New
Mar 8
First Quarter
Mar 16
Full
Mar 23
Last Quarter

Hourly Weather History & Observations

Time (EST) Temp. Dew Point Humidity Pressure Visibility Wind Dir Wind Speed Gust Speed Precip Events Conditions
12:37 AM 60.8 °F 59.0 °F 94% 30.01 in 1.8 mi Calm Calm - N/A   Scattered Clouds
12:53 AM 61.0 °F 59.0 °F 93% 30.05 in 2.0 mi SE 3.5 mph - N/A   Mostly Cloudy
1:00 AM 60.8 °F 59.0 °F 94% 30.01 in 1.2 mi SSE 3.5 mph - N/A   Mostly Cloudy
1:27 AM 62.6 °F 60.8 °F 94% 30.01 in 2.0 mi NNW 4.6 mph - N/A   Mostly Cloudy
1:37 AM 62.6 °F 60.8 °F 94% 30.01 in 3.0 mi NNW 3.5 mph - N/A   Overcast
1:53 AM 62.1 °F 61.0 °F 96% 30.04 in 3.0 mi NW 3.5 mph - N/A   Overcast
2:17 AM 62.6 °F 60.8 °F 94% 30.00 in 3.0 mi Calm Calm - N/A   Overcast
2:35 AM 62.6 °F 60.8 °F 94% 29.99 in 2.0 mi Calm Calm - N/A   Overcast
2:53 AM 62.1 °F 60.1 °F 93% 30.03 in 2.0 mi Calm Calm - N/A   Overcast
3:14 AM 62.6 °F 60.8 °F 94% 29.98 in 3.0 mi Calm Calm - N/A   Overcast
3:38 AM 62.6 °F 60.8 °F 94% 29.98 in 2.5 mi North 4.6 mph - N/A   Overcast
3:50 AM 62.6 °F 60.8 °F 94% 29.98 in 1.5 mi NNE 4.6 mph - N/A   Overcast
3:53 AM 63.0 °F 61.0 °F 93% 30.02 in 1.5 mi North 3.5 mph - N/A   Overcast
4:37 AM 62.6 °F 60.8 °F 94% 29.99 in 0.8 mi Calm Calm - N/A   Overcast
4:53 AM 63.0 °F 60.1 °F 90% 30.03 in 0.8 mi WSW 3.5 mph - N/A   Mist
5:06 AM 62.6 °F 60.8 °F 94% 30.00 in 1.5 mi Calm Calm - N/A   Overcast
5:46 AM 62.6 °F 60.8 °F 94% 30.01 in 0.8 mi Calm Calm - N/A   Mist
5:53 AM 63.0 °F 61.0 °F 93% 30.05 in 0.5 mi Calm Calm - N/A Fog Fog
6:27 AM 62.6 °F 60.8 °F 94% 30.02 in 1.2 mi WNW 6.9 mph - N/A   Overcast
6:49 AM 62.6 °F 60.8 °F 94% 30.03 in 0.2 mi WNW 4.6 mph - N/A Fog Fog
6:53 AM 62.1 °F 61.0 °F 96% 30.06 in 0.2 mi NW 4.6 mph - N/A Fog Fog
7:53 AM 63.0 °F 61.0 °F 93% 30.09 in 1.0 mi NW 9.2 mph - N/A   Overcast
8:27 AM 62.6 °F 60.8 °F 94% 30.06 in 2.0 mi NNW 6.9 mph - N/A   Overcast
8:36 AM 62.6 °F 60.8 °F 94% 30.07 in 2.0 mi NNW 6.9 mph - N/A   Overcast
8:53 AM 63.0 °F 61.0 °F 93% 30.11 in 10.0 mi NW 8.1 mph - N/A   Overcast
9:46 AM 64.4 °F 59.0 °F 83% 30.10 in 10.0 mi North 11.5 mph - N/A   Scattered Clouds
9:53 AM 64.9 °F 57.9 °F 78% 30.14 in 10.0 mi NNW 10.4 mph - N/A   Mostly Cloudy
10:53 AM 64.9 °F 55.9 °F 73% 30.14 in 10.0 mi North 17.3 mph 21.9 mph N/A   Mostly Cloudy
11:34 AM 66.2 °F 55.4 °F 68% 30.09 in 10.0 mi North 10.4 mph - N/A   Clear
11:53 AM 66.9 °F 55.0 °F 66% 30.12 in 10.0 mi North 8.1 mph - N/A   Clear
12:53 PM 71.1 °F 55.0 °F 57% 30.11 in 10.0 mi North 5.8 mph - N/A   Clear
1:53 PM 73.0 °F 53.1 °F 49% 30.08 in 10.0 mi NNE 8.1 mph 17.3 mph N/A   Clear
2:53 PM 75.0 °F 53.1 °F 46% 30.06 in 10.0 mi North 8.1 mph - N/A   Clear
3:53 PM 75.9 °F 52.0 °F 43% 30.06 in 10.0 mi NNE 3.5 mph - N/A   Clear
4:53 PM 75.0 °F 51.1 °F 43% 30.06 in 10.0 mi Calm Calm - N/A   Clear
5:53 PM 72.0 °F 55.9 °F 57% 30.08 in 10.0 mi Calm Calm - N/A   Clear
6:53 PM 66.9 °F 57.9 °F 73% 30.09 in 10.0 mi WSW 5.8 mph - N/A   Clear
7:53 PM 64.9 °F 57.0 °F 75% 30.11 in 10.0 mi Calm Calm - N/A   Clear
8:53 PM 64.0 °F 57.9 °F 80% 30.11 in 10.0 mi Calm Calm - N/A   Clear
9:53 PM 63.0 °F 57.9 °F 84% 30.12 in 10.0 mi Calm Calm - N/A   Clear
10:53 PM 61.0 °F 57.9 °F 90% 30.12 in 7.0 mi Calm Calm - N/A   Clear
11:53 PM 60.1 °F 57.0 °F 90% 30.10 in 7.0 mi Calm Calm - N/A   Clear